Weather History for Newark Heath, OH

Change the Weather History Date:

Wednesday, January 29, 2014

  Actual Average Record
Temperature  
Mean Temperature -2 °F -  
Max Temperature 17 °F 36 °F 17 °F (2014)
Min Temperature -22 °F 19 °F -22 °F (2014)
Degree Days  
Heating Degree Days 68    
Moisture  
Dew Point -15 °F    
Average Humidity 67    
Maximum Humidity 80    
Minimum Humidity 45    
Precipitation  
Precipitation 0.00 in - - ()
Sea Level Pressure  
Sea Level Pressure 30.34 in    
Wind  
Wind Speed 2 mph (SW)    
Max Wind Speed 17 mph    
Max Gust Speed 24 mph    
Visibility 8 miles    
Events      
Averages and records for this station are not official NWS values.
T = Trace of Precipitation, MM = Missing Value Source: NWS Daily Summary

Daily Weather History Graph

Daily Weather History Graph

Search for Another Location

Airport:

Trip Planner

Search our weather history database for the weather conditions in past years. The results will help you decide how hot, cold, wet, or windy it might be!

Date:

Astronomy

Jan. 29, 2014 Rise Set
Actual Time 7:41 AM EST 5:45 PM EST
Civil Twilight 7:12 AM EST 6:14 PM EST
Nautical Twilight 6:39 AM EST 6:46 PM EST
Astronomical Twilight 6:07 AM EST 7:18 PM EST
Moon 6:16 AM EST (1/29) 4:43 PM EST (1/29)
Length of Visible Light 11h 02m
Length of Day
10h 04m
Waning Crescent, 2% of the Moon is Illuminated
Jan 29
Waning Crescent
Jan 30
New
Feb 6
First Quarter
Feb 14
Full
Feb 22
Last Quarter

Hourly Weather History & Observations

Time (EST) Temp. Windchill Dew Point Humidity Pressure Visibility Wind Dir Wind Speed Gust Speed Precip Events Conditions
12:54 AM -20.9 °F - -26.0 °F 77% 30.37 in 7.0 mi Calm Calm - N/A   Clear
1:06 AM -20.0 °F - -25.1 °F 78% 30.28 in 5.0 mi Calm Calm - N/A   Haze
1:50 AM -20.2 °F - -25.6 °F 76% 30.28 in 1.8 mi Calm Calm - N/A   Haze
1:54 AM -22.0 °F - -27.0 °F 77% 30.37 in 1.5 mi Calm Calm - N/A   Haze
2:13 AM -20.9 °F - -27.0 °F 73% 30.28 in 1.5 mi Calm Calm - N/A   Haze
2:21 AM -20.9 °F - -27.0 °F 73% 30.28 in 3.0 mi Calm Calm - N/A   Haze
2:54 AM -18.9 °F - -25.1 °F 74% 30.36 in 2.0 mi Calm Calm - N/A   Haze
3:06 AM -20.9 °F - -26.0 °F 77% 30.28 in 9.0 mi Calm Calm - N/A   Partly Cloudy
3:15 AM -20.9 °F - -27.9 °F 70% 30.28 in 2.5 mi Calm Calm - N/A   Haze
3:24 AM -20.0 °F - -26.0 °F 74% 30.28 in 3.0 mi Calm Calm - N/A   Haze
3:54 AM -20.9 °F - -27.0 °F 73% 30.35 in 4.0 mi Calm Calm - N/A   Haze
4:54 AM -20.0 °F - -27.0 °F 70% 30.34 in 8.0 mi Calm Calm - N/A   Clear
5:54 AM -22.0 °F - -29.0 °F 70% 30.35 in 10.0 mi Calm Calm - N/A   Clear
6:54 AM -17.0 °F -27.2 °F -24.0 °F 70% 30.35 in 9.0 mi South 3.5 mph - N/A   Clear
7:54 AM -18.9 °F - -25.1 °F 74% 30.36 in 6.0 mi Calm Calm - N/A   Haze
8:54 AM -9.0 °F - -15.0 °F 75% 30.36 in 10.0 mi Calm Calm - N/A   Clear
9:54 AM 1.0 °F -11.7 °F -7.1 °F 69% 30.37 in 10.0 mi South 6.9 mph - N/A   Clear
10:54 AM 8.1 °F -8.4 °F -6.0 °F 53% 30.37 in 10.0 mi WSW 13.8 mph 20.7 mph N/A   Clear
11:54 AM 10.9 °F -3.4 °F -5.1 °F 49% 30.37 in 10.0 mi SW 11.5 mph - N/A   Clear
12:54 PM 12.9 °F -0.9 °F -2.9 °F 49% 30.35 in 10.0 mi SW 11.5 mph - N/A   Clear
1:54 PM 16.0 °F 3.6 °F -0.9 °F 47% 30.32 in 10.0 mi SW 10.4 mph 23.0 mph N/A   Clear
2:54 PM 16.0 °F 0.1 °F -0.9 °F 47% 30.32 in 10.0 mi WSW 17.3 mph 24.2 mph N/A   Clear
3:54 PM 17.1 °F 2.5 °F -0.9 °F 45% 30.33 in 10.0 mi SW 15.0 mph - N/A   Clear
4:54 PM 17.1 °F 5.0 °F -0.9 °F 45% 30.35 in 10.0 mi SW 10.4 mph - N/A   Clear
5:54 PM 15.1 °F 4.2 °F -0.9 °F 49% 30.35 in 10.0 mi SSW 8.1 mph - N/A   Clear
6:54 PM 12.9 °F 3.8 °F -2.0 °F 51% 30.35 in 10.0 mi SSW 5.8 mph - N/A   Clear
7:54 PM 5.0 °F - -4.0 °F 66% 30.37 in 10.0 mi Calm Calm - N/A   Clear
8:54 PM -4.0 °F - -9.9 °F 76% 30.37 in 10.0 mi Calm Calm - N/A   Clear
9:54 PM -2.0 °F - -8.0 °F 76% 30.37 in 10.0 mi Calm Calm - N/A   Clear
10:54 PM -5.1 °F - -9.9 °F 80% 30.35 in 9.0 mi Calm Calm - N/A   Clear
11:54 PM -6.0 °F - -11.0 °F 79% 30.35 in 10.0 mi Calm Calm - N/A   Clear